Dewpoint
-9 -9 -10 -9 -10 -10 -10 -2 -3 -3 -1 -2 -0 0 2 -1 1 2 3 3 3 4 5 3 2 2 2 -1 -3 -2 -2 0 1 -0 0 -1 2 2 1 2 5 1 1 3
-10 -12 -11 -9 -10 -10 -10 -4 -5 -3 -2 -2 1 -1 -0 -1 -0 2 1 3 2 1 4 5 4 4 1 -0 -3 -2 -2 -3 1 2 0 1 2 2 1 0 1 2 2 1
-12 -12 -10 -9 -10 -11 -11 -9 -6 -6 -4 -3 -1 0 -1 -1 -2 2 0 3 2 2 2 3 4 5 1 -0 -3 -2 -4 -3 -1 -0 -3 1 3 3 0 -0 2 1 1 0
-14 -11 -9 -9 -10 -11 -10 -9 -4 -4 -7 -5 -4 -2 -3 -2 -2 -3 -0 3 1 4 4 4 4 4 2 1 1 1 -1 1 -0 0 2 1 1 3 2 -0 -1 0 -2 0
-13 -10 -9 -9 -10 -11 -11 -9 -7 -4 -5 -5 -4 -4 -3 -2 -5 -3 0 2 0 2 4 4 4 3 3 3 1 1 1 3 2 4 3 2 2 2 2 0 0 1 -1 -0
-12 -10 -9 -9 -10 -11 -11 -9 -7 -7 -6 -6 -5 -4 -4 -4 -4 -5 -3 -1 -1 2 3 0 -1 0 1 2 3 2 2 3 2 5 4 4 4 3 3 3 1 1 3 0
-12 -10 -9 -8 -9 -9 -9 -9 -8 -8 -7 -6 -5 -5 -5 -4 -5 -4 -4 -3 2 1 -2 1 1 1 1 2 1 2 2 3 1 4 4 5 -1 -1 2 2 1 0 -1 -3
-13 -10 -9 -8 -8 -8 -7 -7 -8 -10 -7 -5 -5 -5 -5 -6 -5 -4 -3 -2 -4 -3 0 1 1 1 -1 -2 -2 -1 -2 -0 1 3 3 -0 -0 2 3 3 3 1 -1 -2
-13 -10 -8 -9 -8 -7 -6 -6 -6 -8 -8 -7 -6 -5 -6 -5 -4 -5 -5 -6 -3 1 1 1 3 2 1 1 0 -3 -2 -2 -0 1 2 0 3 -0 0 -0 4 -1 0 -0
-13 -11 -9 -9 -8 -7 -6 -5 -5 -6 -7 -7 -6 -7 -5 -4 -4 -4 -5 -4 -2 -1 1 2 1 2 -0 2 2 1 0 0 1 2 1 0 -2 -1 0 2 0 0 -1 -0
-14 -10 -10 -10 -8 -7 -6 -4 -4 -4 -4 -5 -6 -5 -4 -4 -5 -4 -5 -3 -3 -2 2 2 2 2 -0 -0 -1 1 1 1 2 1 1 1 -2 1 0 0 1 1 1 1
-15 -10 -10 -11 -9 -7 -5 -4 -3 -3 -4 -5 -6 -6 -5 -5 -5 -4 -4 -3 -2 -1 -1 -1 2 1 -1 -1 1 -2 1 -0 1 -0 0 -3 -2 -0 1 0 1 2 2 2
-15 -9 -11 -11 -8 -6 -5 -4 -6 -4 -6 -7 -7 -6 -6 -6 -5 -5 -4 -4 -1 -2 -2 -2 -0 3 0 1 -0 -0 -2 -2 -0 -1 -2 -2 1 2 1 1 1 2 2 2
-14 -9 -12 -10 -8 -2 -4 -7 -7 -6 -7 -8 -8 -7 -6 -6 -5 -4 -5 -4 -3 -3 -3 -1 1 2 -1 0 -1 -1 -2 -2 -1 -1 -2 -0 1 2 1 1 1 1 1 1
-14 -11 -13 -11 -10 -6 -6 -6 -6 -6 -5 -7 -8 -8 -7 -4 -6 -3 -2 -4 -3 -3 -4 -2 1 2 2 1 -1 -1 -2 -2 -0 -1 -2 -1 -0 2 1 1 1 1 1 1
-12 -12 -12 -11 -11 -7 -6 -6 -5 -6 -3 -6 -6 -7 -8 -6 -1 -2 -3 -2 -4 -3 -3 -3 -1 0 2 3 1 -2 -2 -1 -1 -1 1 -0 1 2 1 1 1 1 1 1
-12 -13 -13 -9 -9 -8 -8 -7 -6 -6 -3 -5 -6 -6 -7 -5 -3 -2 -3 -4 -3 -3 -2 -2 -2 0 2 0 1 -2 -0 0 0 0 1 1 1 1 1 1 1 1 0 -0
-13 -13 -14 -7 -7 -7 -6 -6 -6 -6 -5 -6 -9 -6 -6 -5 -4 -2 -2 -3 -4 -3 -3 -2 1 1 1 3 0 -1 0 1 1 1 1 1 1 1 1 1 1 -0 -0 -1
-13 -14 -8 -7 -8 -7 -6 -6 -5 -5 -5 -5 -5 -5 -6 -5 -5 -4 -1 -2 -1 -3 -0 0 0 1 1 0 -0 0 0 1 1 1 1 1 1 1 1 1 0 -0 -1 -1
-14 -9 -6 -6 -7 -6 -4 -4 -4 -4 -4 -4 -4 -4 -6 -4 -5 -4 -2 -0 1 1 -0 -1 1 1 -1 -0 -0 -0 0 0 0 0 0 0 0 0 -0 -0 -0 -0 -0 -0
-11 -8 -7 -6 -5 -4 -4 -4 -5 -4 -4 -5 -5 -4 -4 -5 -4 -5 -3 -1 0 2 -0 1 2 2 -2 -1 -1 -1 -1 -1 -0 -0 -0 -0 -0 -0 -0 -1 -1 -2 -2 -2
-13 -10 -8 -5 -4 -5 -7 -5 -5 -6 -4 -4 -4 -4 -5 -5 -3 -2 -2 -2 -0 1 0 2 2 -2 -1 -1 -1 -1 -1 -2 -2 -2 -2 -2 -2 -2 -2 -2 -2 -2 -2 -2
-11 -10 -6 -5 -5 -7 -8 -6 -9 -10 -5 -5 -5 -7 -6 -6 -4 -3 -2 -0 -0 1 2 2 -1 -1 -2 -1 -1 -1 -2 -2 -2 -2 -2 -2 -2 -2 -2 -2 -3 -7 -9 -10
-11 -9 -6 -7 -7 -6 -8 -10 -10 -6 -5 -5 -5 -5 -5 -5 -4 -4 -2 -2 1 1 -1 -1 -2 -3 -3 -3 -2 -2 -2 -2 -2 -4 -6 -8 -11 -11 -14 -18 -19 -18 -17 -17
-10 -10 -7 -7 -7 -4 -5 -4 -4 -4 -4 -5 -5 -6 -5 -7 -4 -5 -3 -0 2 -0 -1 -3 -5 -5 -4 -3 -3 -2 -2 -2 -6 -14 -16 -18 -17 -17 -19 -20 -20 -20 -20 -19
-9 -8 -7 -7 -6 -5 -5 -4 -5 -4 -4 -5 -6 -6 -6 -7 -6 -4 -3 -0 -2 -2 -4 -6 -11 -10 -3 -3 -3 -2 -3 -3 -5 -13 -16 -17 -17 -16 -18 -20 -21 -20 -19 -18
-6 -5 -7 -7 -7 -6 -5 -5 -5 -5 -6 -9 -7 -6 -8 -7 -8 -6 -6 -6 -6 -4 -3 -4 -8 -12 -4 -3 -3 -3 -3 -3 -4 -8 -14 -14 -16 -17 -18 -20 -19 -18 -18 -18
Wind_Speed
15 17 18 19 20 21 9 0 2 13 6 3 3 2 4 7 7 9 3 3 6 5 3 3 4 4 5 12 11 7 5 2 3 2 5 5 2 5 4 3 3 2 1 2
14 15 15 17 18 20 9 1 2 9 6 3 3 4 2 2 5 5 6 4 9 9 4 4 3 3 3 14 9 7 6 1 3 2 3 3 4 4 4 3 3 1 2 1
12 12 13 15 15 17 6 1 2 4 8 4 2 4 4 6 8 1 5 3 6 6 2 2 5 7 3 6 7 6 10 1 3 4 3 5 4 6 3 4 2 1 3 3
7 10 11 13 14 13 4 4 2 2 2 3 3 3 4 5 7 5 8 1 11 7 3 5 7 5 5 2 3 2 3 4 4 7 7 5 8 15 11 5 4 4 3 5
5 8 11 13 14 9 9 3 3 3 2 3 2 5 4 4 5 3 4 7 14 10 4 2 5 6 2 3 4 3 0 3 4 3 4 7 4 12 14 14 5 2 1 2
1 8 10 13 13 13 7 4 5 3 3 2 2 1 3 3 6 5 6 8 8 8 4 16 23 17 14 3 6 8 5 3 1 1 2 4 2 10 15 8 5 6 6 5
4 9 9 12 12 16 13 8 4 3 1 1 1 1 2 3 4 3 10 11 5 6 27 21 2 4 9 7 6 11 5 3 2 1 1 2 2 3 10 12 8 5 3 3
8 9 8 10 11 13 13 13 5 3 2 1 2 2 3 9 9 3 5 3 12 17 14 5 3 2 2 2 2 5 5 2 2 1 1 4 2 2 4 7 5 7 6 4
10 9 7 9 9 10 11 12 11 3 5 3 0 1 2 3 4 5 4 13 9 11 1 3 3 1 1 4 7 1 1 2 3 2 1 1 1 4 3 5 1 1 10 8
11 9 8 8 8 9 9 9 11 4 2 2 3 2 1 3 3 1 5 14 10 15 4 3 3 2 1 2 3 4 3 3 2 0 1 3 3 5 1 2 3 4 8 11
12 10 8 7 7 8 7 8 10 8 2 3 0 2 1 1 3 2 8 3 5 6 5 3 2 2 2 2 2 0 1 1 1 1 1 2 5 3 2 2 4 2 7 10
11 10 7 7 7 6 6 6 7 6 3 4 4 5 3 1 1 3 5 0 2 5 3 3 3 1 2 2 2 2 1 2 2 3 3 3 4 1 3 2 5 5 9 8
11 10 5 6 5 4 7 6 7 7 5 6 4 4 5 4 6 7 1 1 2 3 5 3 3 3 1 2 2 2 2 2 1 2 2 3 3 4 4 7 8 8 8 7
12 10 5 3 3 3 5 7 10 8 5 4 1 5 6 7 6 5 3 10 7 5 8 2 3 2 2 2 2 2 4 1 2 3 3 3 1 2 5 6 6 7 7 6
14 11 6 2 2 5 8 8 9 9 2 3 2 3 1 3 8 8 5 7 8 4 2 2 2 5 2 1 0 3 4 3 2 3 2 2 1 4 4 5 6 6 4 5
16 11 6 2 1 7 7 3 2 7 5 2 1 1 1 9 6 5 3 5 5 3 2 4 6 5 3 2 3 5 4 4 5 2 2 2 5 5 5 4 4 3 3 3
16 12 6 5 5 7 5 4 3 5 5 2 2 3 3 10 4 4 3 3 3 4 3 4 5 4 2 2 4 5 2 3 2 2 4 4 6 4 5 4 3 3 3 2
16 12 8 11 11 8 7 5 2 2 4 4 2 3 3 11 5 3 1 3 4 5 4 4 4 3 3 4 6 6 4 2 2 3 2 2 4 5 4 4 3 2 2 2
16 12 15 15 4 3 5 8 6 8 6 4 3 2 3 9 5 4 3 4 3 4 4 4 3 2 5 4 7 3 2 3 2 3 2 3 3 3 3 3 3 3 4 4
17 20 5 5 5 10 10 4 3 4 5 5 3 1 3 6 6 3 4 4 2 2 5 3 3 3 13 8 7 4 2 3 3 3 3 3 4 4 4 3 4 5 7 8
20 8 5 14 14 4 4 3 2 1 2 1 1 3 3 1 2 2 3 3 2 2 2 2 2 1 4 6 3 2 2 2 2 2 3 3 4 4 4 5 6 6 7 8
12 11 18 12 4 4 5 1 0 2 3 3 2 2 4 3 3 3 3 3 2 4 2 2 2 2 12 7 5 3 3 3 3 4 4 4 4 4 5 4 4 4 4 4
19 6 6 5 2 5 5 4 3 1 5 5 1 2 2 2 2 4 3 3 4 2 2 1 1 10 21 15 9 6 6 7 8 7 4 2 1 1 2 2 2 3 4 5
4 6 4 2 1 3 4 4 4 5 8 5 1 1 1 1 1 2 3 4 3 2 1 1 3 19 25 19 12 10 9 7 3 2 2 1 2 2 2 3 4 4 4 6
4 5 4 3 5 5 10 11 9 7 6 4 2 1 2 2 2 2 3 3 2 3 3 2 18 24 25 22 17 12 11 9 5 3 2 1 1 1 1 3 4 5 5 6
3 4 6 7 6 4 6 7 6 9 6 4 4 1 0 3 2 2 5 3 2 2 2 12 17 22 25 21 17 12 11 11 7 4 2 1 1 2 4 4 4 5 5 5
4 3 7 10 6 11 9 10 11 9 4 2 2 3 6 2 2 3 3 4 3 6 12 16 18 19 22 20 14 10 10 12 12 8 4 1 3 4 4 3 4 5 6 6
Wind_Direction
338 343 346 350 347 350 1 346 49 3 358 47 20 37 328 329 321 351 319 242 335 339 334 211 234 241 219 179 148 161 198 137 137 167 236 219 211 174 157 135 177 71 203 342
336 345 352 354 350 353 359 58 78 25 29 74 0 351 307 326 349 343 358 323 3 335 335 330 312 6 347 178 152 151 176 254 100 88 317 125 204 184 154 95 79 204 95 185
338 353 6 2 357 357 11 27 41 40 61 56 51 345 351 326 350 154 346 288 358 340 315 332 342 19 88 179 165 170 179 161 216 180 198 155 184 159 149 114 115 180 230 287
356 13 22 12 9 9 19 45 87 73 336 5 4 341 355 322 351 356 330 53 11 346 305 341 0 2 109 92 321 23 165 230 196 274 285 232 184 167 168 154 203 162 230 198
3 36 34 30 27 28 42 65 121 113 71 324 347 356 12 335 336 303 336 356 341 335 313 28 312 355 318 147 145 157 206 289 163 272 250 169 177 193 184 196 195 252 262 302
15 63 49 44 41 46 48 72 107 143 3 10 94 271 286 307 331 258 261 332 326 319 356 310 287 268 257 258 155 173 184 242 160 292 356 106 256 192 189 191 178 165 191 219
138 81 61 51 44 51 48 57 100 123 176 124 160 251 288 279 311 247 303 311 302 326 313 314 307 197 237 221 218 194 175 209 196 122 4 214 235 294 188 193 196 193 233 209
128 102 79 61 45 53 45 46 54 109 149 187 213 285 281 307 317 299 289 309 310 314 319 352 11 22 68 5 123 185 216 150 88 126 274 306 69 99 138 181 244 204 195 188
130 115 95 73 54 52 48 47 40 68 134 231 40 342 334 344 318 343 298 334 352 357 298 354 49 61 297 328 349 4 102 83 120 143 141 328 309 319 274 181 308 292 199 189
140 130 111 82 62 51 46 40 40 48 76 106 61 54 342 356 348 275 305 335 346 9 358 57 29 339 288 40 5 328 343 358 92 59 141 310 296 299 291 172 232 324 185 185
146 140 120 93 70 50 45 28 30 38 79 96 97 323 299 357 38 46 320 344 9 350 20 360 12 343 323 328 275 284 218 35 318 191 68 70 355 324 73 271 352 50 121 137
148 145 133 103 89 63 49 48 32 42 79 91 55 60 54 201 172 327 351 62 285 11 337 5 304 315 348 290 329 345 43 177 233 174 225 268 311 292 352 31 87 89 117 128
155 152 139 104 95 81 58 41 54 84 101 99 62 36 332 292 303 315 275 346 64 15 5 310 290 280 129 318 280 303 282 173 202 12 309 299 353 32 56 79 94 92 97 108
161 154 138 109 99 110 48 77 61 61 108 102 114 33 51 40 15 356 289 245 284 309 325 275 277 277 219 244 263 211 235 5 209 267 294 306 287 92 83 80 79 84 91 93
163 155 143 123 63 105 103 112 61 46 83 150 150 95 46 8 342 331 272 249 256 293 311 260 260 304 292 249 44 258 192 201 157 223 263 177 252 150 131 123 100 90 90 86
162 155 147 143 76 103 129 118 28 17 56 105 87 65 37 3 10 357 332 228 227 233 258 255 267 267 280 265 271 261 238 255 256 274 322 205 148 146 143 133 107 93 77 71
160 152 159 158 125 104 87 98 79 7 84 84 19 353 1 0 13 345 44 145 183 212 243 247 259 277 253 254 252 244 274 331 262 221 152 136 162 172 170 163 146 141 127 102
159 152 171 138 133 100 80 88 65 38 76 65 81 292 1 10 345 342 253 153 205 226 252 258 247 253 231 254 251 265 260 246 163 161 189 184 170 167 171 179 181 199 243 283
155 158 141 132 126 102 100 104 86 64 61 95 62 58 285 349 347 306 271 206 228 208 220 235 202 201 234 250 278 272 238 241 205 176 154 146 162 182 205 219 237 260 280 292
153 146 139 117 119 126 119 78 49 44 42 50 80 346 286 331 342 302 307 228 240 228 227 203 229 243 256 282 289 287 255 230 220 215 219 220 213 216 229 251 277 289 292 294
160 153 105 129 129 118 81 73 48 93 80 137 191 228 308 341 299 276 299 300 275 258 242 203 233 264 2 342 326 284 258 233 226 224 232 233 223 225 243 265 281 290 293 297
156 136 117 129 130 97 86 56 55 82 187 181 190 251 274 299 286 271 275 272 269 254 269 229 262 3 347 329 314 304 290 281 271 252 248 248 249 255 253 263 285 298 318 329
132 111 111 155 116 59 135 180 280 278 185 181 179 328 314 314 282 279 272 257 239 302 234 212 74 354 351 337 303 297 297 292 282 279 259 249 225 132 108 73 5 340 333 334
124 140 117 144 150 230 184 175 161 136 139 148 94 250 256 288 355 259 252 263 266 267 270 246 13 345 340 335 313 277 286 282 247 181 153 134 104 73 56 20 358 354 350 350
126 146 154 165 119 112 132 117 122 130 142 144 112 339 255 294 258 229 282 255 267 27 19 300 323 336 338 336 325 285 268 260 231 216 183 153 117 85 10 352 354 354 355 354
115 106 104 117 106 159 151 148 137 148 147 111 101 145 344 260 207 265 226 303 234 238 224 307 329 335 339 333 324 296 261 245 214 225 214 210 16 7 352 343 353 359 0 360
97 91 117 129 118 166 167 158 146 138 121 123 141 181 211 2 305 263 197 201 210 252 292 312 322 328 333 331 322 298 263 240 212 199 203 330 330 330 329 328 344 353 353 354
Height
1498 1495 1491 1486 1481 1476 1473 1472 1474 1473 1472 1472 1472 1476 1472 1470 1465 1463 1459 1458 1454 1452 1450 1453 1455 1453 1451 1454 1457 1465 1467 1470 1473 1466 1466 1464 1463 1465 1469 1478 1471 1486 1483 1462
1496 1493 1490 1486 1481 1476 1473 1472 1474 1475 1472 1481 1476 1474 1471 1468 1467 1464 1460 1460 1459 1456 1454 1450 1447 1446 1451 1453 1455 1460 1463 1472 1471 1470 1464 1463 1464 1465 1465 1468 1471 1482 1469 1460
1494 1492 1488 1485 1480 1476 1474 1473 1478 1476 1475 1478 1479 1477 1476 1470 1467 1464 1463 1462 1457 1455 1452 1453 1450 1446 1455 1457 1458 1459 1460 1465 1458 1460 1456 1454 1462 1462 1465 1466 1473 1471 1470 1461
1493 1490 1487 1484 1480 1476 1475 1474 1480 1481 1487 1481 1482 1479 1478 1475 1471 1468 1465 1460 1463 1461 1455 1453 1452 1450 1458 1461 1462 1463 1463 1468 1460 1453 1448 1450 1450 1453 1461 1471 1466 1462 1458 1460
1491 1489 1486 1483 1480 1477 1475 1476 1478 1481 1482 1483 1482 1483 1482 1479 1476 1473 1467 1464 1465 1461 1457 1458 1456 1457 1451 1454 1463 1464 1466 1458 1454 1450 1447 1445 1448 1449 1453 1455 1461 1459 1454 1455
1489 1488 1485 1483 1481 1477 1475 1476 1477 1477 1483 1483 1484 1486 1482 1479 1477 1470 1469 1470 1466 1458 1458 1458 1453 1455 1453 1453 1455 1460 1462 1458 1456 1447 1445 1447 1449 1450 1453 1455 1458 1456 1458 1451
1487 1485 1484 1483 1481 1478 1477 1476 1476 1477 1483 1482 1482 1483 1481 1478 1477 1475 1469 1467 1465 1459 1455 1448 1446 1448 1449 1451 1451 1452 1454 1455 1453 1450 1452 1455 1443 1442 1441 1446 1449 1450 1448 1449
1484 1484 1483 1482 1481 1479 1478 1476 1476 1476 1481 1481 1481 1481 1479 1476 1473 1472 1470 1466 1465 1459 1455 1450 1447 1448 1446 1447 1446 1448 1449 1448 1451 1449 1448 1445 1441 1442 1444 1442 1446 1445 1448 1447
1480 1481 1482 1481 1481 1479 1478 1477 1475 1475 1478 1481 1480 1480 1480 1480 1476 1471 1470 1466 1462 1460 1456 1456 1451 1462 1454 1451 1449 1445 1445 1446 1452 1457 1450 1445 1444 1441 1441 1443 1446 1442 1443 1446
1477 1479 1480 1480 1479 1478 1478 1477 1475 1475 1476 1479 1480 1480 1481 1479 1478 1477 1474 1470 1464 1463 1459 1458 1464 1458 1456 1457 1456 1454 1453 1452 1454 1452 1457 1450 1445 1443 1442 1445 1451 1441 1440 1442
1475 1476 1478 1478 1478 1477 1477 1476 1474 1475 1476 1479 1479 1479 1480 1480 1479 1480 1475 1472 1472 1470 1464 1462 1460 1460 1465 1461 1456 1454 1457 1458 1456 1454 1450 1451 1445 1443 1444 1445 1441 1440 1440 1442
1472 1473 1475 1476 1476 1476 1475 1475 1474 1475 1476 1479 1479 1478 1478 1478 1477 1479 1479 1480 1480 1478 1476 1472 1467 1460 1468 1469 1459 1455 1454 1455 1456 1453 1451 1446 1445 1445 1445 1444 1444 1444 1445 1446
1469 1470 1472 1473 1474 1474 1474 1474 1473 1474 1476 1479 1479 1478 1478 1477 1478 1478 1480 1480 1479 1481 1482 1480 1475 1465 1464 1466 1461 1457 1452 1452 1453 1451 1446 1445 1444 1444 1444 1444 1445 1446 1447 1447
1466 1468 1470 1471 1472 1473 1472 1473 1473 1473 1474 1477 1480 1479 1478 1478 1477 1477 1477 1477 1479 1480 1480 1480 1474 1467 1465 1464 1461 1460 1453 1452 1450 1450 1445 1445 1445 1445 1446 1446 1447 1448 1449 1449
1463 1465 1468 1469 1470 1471 1471 1473 1473 1472 1476 1475 1476 1479 1479 1477 1475 1474 1475 1477 1478 1479 1478 1477 1471 1466 1465 1461 1461 1459 1449 1449 1451 1450 1445 1446 1446 1446 1447 1448 1449 1450 1450 1451
1460 1463 1466 1467 1468 1469 1471 1473 1474 1472 1472 1473 1477 1477 1477 1476 1474 1473 1472 1473 1476 1478 1479 1474 1469 1465 1466 1460 1457 1448 1447 1446 1447 1446 1446 1445 1446 1447 1448 1449 1449 1450 1451 1451
1457 1461 1464 1465 1468 1469 1470 1473 1474 1473 1473 1473 1476 1476 1476 1474 1473 1473 1472 1473 1474 1476 1475 1472 1467 1462 1461 1458 1454 1445 1446 1445 1445 1445 1446 1447 1447 1447 1448 1449 1449 1450 1451 1451
1456 1459 1463 1464 1468 1469 1469 1471 1472 1473 1473 1474 1480 1478 1475 1475 1473 1473 1472 1472 1474 1474 1472 1469 1465 1461 1458 1451 1443 1444 1444 1445 1444 1445 1445 1445 1446 1447 1447 1448 1449 1450 1450 1450
1453 1458 1461 1465 1468 1468 1470 1471 1473 1474 1477 1476 1481 1485 1488 1477 1475 1473 1472 1471 1470 1469 1469 1465 1462 1459 1455 1446 1444 1442 1443 1444 1444 1443 1444 1444 1445 1446 1447 1447 1447 1448 1448 1448
1452 1458 1460 1463 1467 1469 1471 1473 1476 1476 1477 1480 1483 1485 1485 1482 1478 1475 1474 1468 1465 1463 1459 1456 1455 1447 1445 1444 1445 1445 1443 1443 1443 1443 1444 1444 1444 1444 1445 1446 1446 1446 1445 1445
1450 1454 1457 1464 1468 1471 1472 1476 1478 1479 1481 1482 1482 1483 1484 1481 1481 1480 1475 1470 1463 1458 1456 1456 1449 1446 1448 1447 1445 1445 1444 1443 1443 1443 1443 1443 1443 1443 1443 1444 1444 1444 1443 1442
1446 1449 1456 1465 1468 1471 1475 1480 1480 1480 1481 1480 1481 1482 1482 1480 1479 1478 1476 1471 1466 1458 1455 1453 1447 1453 1450 1448 1447 1446 1445 1444 1442 1441 1441 1441 1441 1442 1441 1441 1441 1441 1441 1440
1444 1448 1454 1460 1467 1474 1479 1484 1487 1486 1477 1478 1479 1481 1481 1480 1480 1479 1475 1467 1462 1456 1452 1447 1454 1455 1451 1449 1446 1446 1445 1443 1442 1440 1439 1439 1439 1440 1440 1440 1440 1440 1439 1438
1441 1445 1457 1457 1466 1466 1468 1469 1468 1471 1474 1476 1477 1479 1480 1479 1478 1476 1474 1462 1457 1450 1457 1455 1455 1455 1452 1448 1446 1444 1443 1442 1441 1440 1439 1439 1439 1439 1439 1439 1439 1438 1437 1436
1439 1443 1450 1457 1456 1460 1463 1464 1467 1470 1473 1475 1476 1478 1480 1479 1477 1475 1470 1462 1449 1454 1458 1459 1456 1451 1449 1446 1443 1441 1441 1440 1440 1440 1439 1439 1439 1439 1439 1438 1438 1437 1436 1435
1438 1442 1448 1453 1457 1463 1463 1465 1467 1469 1471 1474 1476 1478 1479 1479 1479 1475 1467 1458 1460 1459 1458 1454 1451 1447 1445 1442 1439 1437 1437 1438 1438 1439 1439 1438 1438 1437 1437 1437 1437 1436 1435 1434
1439 1443 1443 1447 1452 1455 1459 1462 1465 1467 1470 1473 1476 1479 1480 1477 1481 1474 1462 1463 1457 1454 1453 1452 1450 1446 1441 1438 1436 1434 1434 1435 1435 1436 1437 1436 1436 1436 1436 1436 1435 1434 1433 1432